Weather History for Longview, TX

Change the Weather History Date:

Tuesday, December 18, 2012

  Actual Average Record
Temperature  
Mean Temperature 58 °F 47 °F  
Max Temperature 78 °F 58 °F 78 °F (2012)
Min Temperature 37 °F 37 °F 20 °F (1964)
Degree Days  
Heating Degree Days 7 18  
Month to date heating degree days 161 295  
Since 1 July heating degree days 522 667  
Cooling Degree Days 0 0  
Month to date cooling degree days 26 0  
Year to date cooling degree days 2995 2417  
Growing Degree Days 7 (Base 50)    
Moisture  
Dew Point 40 °F    
Average Humidity 57    
Maximum Humidity 92    
Minimum Humidity 22    
Precipitation  
Precipitation 0.00 in 0.14 in 2.44 in (2002)
Month to date precipitation 0.50 2.79  
Year to date precipitation 34.41 45.85  
Snow  
Snow 0.00 in - - ()
Month to date snowfall 0.0  
Since 1 July snowfall 0.0  
Snow Depth 0.00 in    
Sea Level Pressure  
Sea Level Pressure 29.85 in    
Wind  
Wind Speed 8 mph (South)    
Max Wind Speed 20 mph    
Max Gust Speed 25 mph    
Visibility 10 miles    
Events      
T = Trace of Precipitation, MM = Missing Value Source: NWS Daily Summary

Daily Weather History Graph

Daily Weather History Graph

Search for Another Location

Airport:

Trip Planner

Search our weather history database for the weather conditions in past years. The results will help you decide how hot, cold, wet, or windy it might be!

Date:

Astronomy

Dec. 18, 2012 Rise Set
Actual Time 7:14 AM CST 5:16 PM CST
Civil Twilight 6:47 AM CST 5:43 PM CST
Nautical Twilight 6:17 AM CST 6:14 PM CST
Astronomical Twilight 5:47 AM CST 6:44 PM CST
Moon 11:13 AM CST (12/18) 11:23 PM CST (12/18)
Length of Visible Light 10h 55m
Length of Day
10h 01m
Waxing Crescent, 35% of the Moon is Illuminated
Dec 18
Waxing Crescent
Dec 19
First Quarter
Dec 28
Full
Jan 4
Last Quarter
Jan 11
New

Hourly Weather History & Observations

Time (CST) Temp. Windchill Dew Point Humidity Pressure Visibility Wind Dir Wind Speed Gust Speed Precip Events Conditions
12:53 AM 39.9 °F 36.7 °F 37.0 °F 89% 29.89 in 10.0 mi SSE 4.6 mph - N/A   Clear
1:53 AM 39.9 °F 37.8 °F 37.0 °F 89% 29.88 in 10.0 mi SSE 3.5 mph - N/A   Clear
2:53 AM 39.0 °F 35.7 °F 36.0 °F 89% 29.88 in 10.0 mi SSE 4.6 mph - N/A   Clear
3:53 AM 41.0 °F 39.0 °F 37.0 °F 86% 29.87 in 10.0 mi SE 3.5 mph - N/A   Clear
4:53 AM 37.0 °F - 35.1 °F 93% 29.86 in 9.0 mi Calm Calm - N/A   Clear
6:53 AM 43.0 °F 40.3 °F 36.0 °F 76% 29.87 in 10.0 mi South 4.6 mph - N/A   Clear
7:53 AM 48.0 °F - 37.9 °F 68% 29.87 in 10.0 mi South 6.9 mph - N/A   Clear
8:53 AM 53.1 °F - 39.9 °F 61% 29.88 in 10.0 mi SSW 9.2 mph - N/A   Clear
9:53 AM 59.0 °F - 37.9 °F 46% 29.90 in 10.0 mi SW 6.9 mph - N/A   Clear
10:53 AM 66.0 °F - 37.0 °F 34% 29.90 in 10.0 mi SW 10.4 mph - N/A   Clear
11:53 AM 70.0 °F - 37.9 °F 31% 29.88 in 10.0 mi SSW 9.2 mph - N/A   Clear
12:53 PM 75.0 °F - 36.0 °F 24% 29.84 in 10.0 mi SW 9.2 mph - N/A   Clear
1:53 PM 77.0 °F - 35.1 °F 22% 29.82 in 10.0 mi SW 15.0 mph 24.2 mph N/A   Clear
2:53 PM 77.0 °F - 39.0 °F 25% 29.81 in 10.0 mi SSW 16.1 mph - N/A   Clear
3:53 PM 75.9 °F - 37.9 °F 25% 29.80 in 10.0 mi SSW 11.5 mph - N/A   Clear
4:53 PM 73.0 °F - 39.9 °F 30% 29.81 in 10.0 mi SSW 9.2 mph - N/A   Clear
5:53 PM 63.0 °F - 41.0 °F 45% 29.82 in 10.0 mi South 4.6 mph - N/A   Clear
6:53 PM 59.0 °F - 44.1 °F 58% 29.83 in 10.0 mi South 5.8 mph - N/A   Clear
7:53 PM 55.0 °F - 44.1 °F 67% 29.84 in 10.0 mi South 6.9 mph - N/A   Clear
8:53 PM 57.9 °F - 46.0 °F 65% 29.84 in 10.0 mi South 9.2 mph - N/A   Clear
9:53 PM 61.0 °F - 48.9 °F 64% 29.84 in 10.0 mi South 9.2 mph - N/A   Clear
10:53 PM 61.0 °F - 53.1 °F 75% 29.84 in 10.0 mi South 10.4 mph - N/A   Clear
11:53 PM 61.0 °F - 54.0 °F 78% 29.84 in 10.0 mi South 10.4 mph - N/A   Clear